Flag for Germany Weather past 2 weeks in Bautzen, Saxony, Germany

Now
87 °F

Overcast.


Feels Like: 86 °F
Forecast: 63 / 78 °F
Wind: 5 mph from South

Location: Goerlitz

Current Time: Jul 5, 2015 at 8:28:27 PM

Latest Report: Jul 5, 2015 at 8:00 PM


Visibility: 22 mi

Pressure: 29.91 "Hg

Humidity: 40%

Dew point: 60 °F

Location of BautzenLocation

Historic Weather in Bautzen — Graph

°F

Bautzen temperature yesterday

Maximum temperature yesterday: 93 °F (at 3:00 PM)
Minimum temperature yesterday: 65 °F (at 3:00 AM)
Average temperature yesterday: 80 °F

Past Weeks' High & Low Weather Summary

 TemperatureHumidityPressure
High94 °F (Jul 5, 5:00 PM)98% (Jun 25, 5:00 AM)30.30 "Hg (Jun 25, 5:00 AM)
Low41 °F (Jun 25, 4:00 AM)26% (Jul 4, 5:00 PM)29.66 "Hg (Jun 23, 7:00 AM)
Average65 °F69%30.09 "Hg
* Reported Jun 20 7:00 PM — Jul 5 7:00 PM, Bautzen, Weather by CustomWeather, © 2015

Note: Actual official high and low records may vary slightly from our data, if they occured in-between our weather recording intervals... More about our weather records

Advertising

Bautzen weather history for previous 24 hours

 ConditionsComfort  
Time TempWeatherWind HumidityBarometerVisibility
7:00 PM
Sun, Jul 5
88 °FOvercast.3 mph38%29.93 "Hg16 mi
6:00 PM93 °FPartly sunny.6 mph30%29.93 "Hg14 mi
5:00 PM94 °FPassing clouds.6 mph30%29.95 "Hg14 mi
4:00 PM93 °FPassing clouds.6 mph29%29.96 "Hg16 mi
3:00 PM93 °FPassing clouds.5 mph30%29.98 "Hg16 mi
2:00 PM90 °FPassing clouds.6 mph33%30.01 "Hg14 mi
1:00 PM87 °FScattered clouds.6 mph37%30.03 "Hg16 mi
12:00 PM83 °FOvercast.3 mph50%30.04 "Hg13 mi
11:00 AM78 °FOvercast.6 mph65%30.06 "Hg13 mi
10:00 AM87 °FPartly sunny.3 mph39%30.02 "Hg14 mi
9:00 AM81 °FPartly sunny.3 mph53%30.03 "Hg14 mi
8:00 AM78 °FScattered clouds.2 mph59%30.05 "Hg13 mi
7:00 AM75 °FPartly sunny.2 mph66%30.07 "Hg14 mi
5:00 AM74 °FOvercast.3 mph60%30.09 "Hg12 mi
4:00 AM72 °FOvercast.2 mph66%30.07 "Hg9 mi
3:00 AM71 °FOvercast.1 mph76%30.07 "Hg11 mi
2:00 AM70 °FOvercast.1 mph77%30.09 "Hg11 mi
1:00 AM72 °FPassing clouds.1 mph75%30.09 "Hg9 mi
12:00 AM72 °FPassing clouds.2 mph78%30.09 "Hg9 mi
11:00 PM
Sat, Jul 4
74 °FPassing clouds.2 mph71%30.10 "Hg12 mi
10:00 PM78 °FPassing clouds.1 mph58%30.09 "Hg16 mi
9:00 PM84 °FOvercast.2 mph41%30.08 "Hg25 mi
8:00 PM86 °FPassing clouds.2 mph42%30.07 "Hg28 mi
Weather by CustomWeather, © 2015

See weather overviewHow to use our weather pages